Showing default

KUIPER-00214, 67778

Orbit data source: Space-Track

KUIPER-00214, 67778 is a payload satellite owned by Kuiper Systems (US) in LEO that was launched on Thu, 12 Feb 2026 UTC via an ARIANE 64 launch vehicle from the French Guiana (FRGUI). Payload-class satellites include a variety of spacecraft equipped with specific instruments for various scientific and technological missions. These include communications satellites like Starlink; space stations such as the ISS; scientific satellites like the Hubble; Earth observation satellites from companies like Planet Labs, Umbra, and HawkEye 360; GPS; miniature CubeSats for education and research; and military/defense satellites.

Loading next visibility...
Identifier
67778, 2026-030Q
Orbit
LEO
Country
Flag of USUS
Related business
Manufacturer
Kuiper Systems
Mission
Operational Commercial Communications
Bus & Motor
KUIPER, Unknown motor
Mass
~490 kg wet, ~490 kg dry
Launch date (UTC)
2026-02-12 (4 months ago)
Launch vehicle
ARIANE 64
Launch site
French Guiana (FRGUI)
Object type
Payload
Rocket body
Debris
Shape & HBR
Box + 2 Pan, 3.4 m
Radar Cross Section
2.326 m², Large (>1 m²)

Expand to show TLE details & history
Last TLE update: 15 hours ago

TLE from 15 hours ago
0 KUIPER-00214
1 67778U 26030Q   26171.20671868  .00001214  00000-0  18817-3 0  9997
2 67778  51.8999 109.8610 0000768  86.7867 273.3183 14.79932043 20490
Epoch: 2026-06-20T04:57Z
TLE epoch observation values (Epoch: 2026-06-20T04:57:40.493Z)
Latitude
-0.00006°
Longitude
127.01757°
Altitude
630.254 km
Speed
7.545 km/s
True Right ascension
07h 19m 26s
True Declination
0° 00' 00"
Sunlit
Object was in daylight at epoch
Visualization orbit readout
Latitude
Unknown
Longitude
Unknown
Altitude
Unknown
Speed
Unknown
Apparent Right ascension
Unknown
Apparent Declination
Unknown
Sunlit
N/A
Visualization observer readout
Local Sidereal Time
07:13:11
Azimuth
Unknown
Elevation
Unknown
Doppler factor
Unknown
Orbital elements
Apogee altitude
630.528 km
Perigee altitude
629.452 km
Semi-major axis
7,008.127 km
Eccentricity
0.00008
Inclination
51.8999°
RAAN
109.861°
Arg. of periapsis
86.7867°
True anomaly
273.30951°
Mean anomaly
273.3183°
Eccentric anomaly
273.31391°
Mean motion
3.69948 °/min
Orbital period
97.31 mins
BSTAR
0.00018817
Loading maneuver chart data...
Computing Atmospheric mass density...
Loading historical data...
Loading historical data...
Loading historical data...
Loading historical data...
Loading historical data...
Loading historical data...
Loading historical data...

Documentation

Showing up to 5 results
|